Presque Isle, ME

5:37 AM EST on February 23, 2017 (GMT -0500)
Northern Maine Regional At Presque Isle

Weather History for KPQI - September, 2012

Change the Weather History Date:

Monday, September 17, 2012

  Actual Average Record
Temperature  
Mean Temperature 54 °F -  
Max Temperature 69 °F 65 °F 87 °F (1939)
Min Temperature 39 °F 42 °F 27 °F (1960)
Degree Days  
Heating Degree Days 11    
Growing Degree Days 4 (Base 50)    
Moisture  
Dew Point 41 °F    
Average Humidity 62    
Maximum Humidity 87    
Minimum Humidity 33    
Precipitation  
Precipitation 0.00 in - - ()
Sea Level Pressure  
Sea Level Pressure 29.91 in    
Wind  
Wind Speed 5 mph (SW)    
Max Wind Speed 10 mph    
Max Gust Speed -    
Visibility 10 miles    
Events      
Averages and records for this station are not official NWS values.
T = Trace of Precipitation, MM = Missing Value Source: NWS Daily Summary

Daily Weather History Graph

Daily Weather History Graph

Search for Another Location

Airport or City:

Trip Planner

Search our weather history database for the weather conditions in past years. The results will help you decide how hot, cold, wet, or windy it might be!

Date:

Astronomy

Sep. 17, 2012 Rise Set
Actual Time 6:13 AM EDT 6:38 PM EDT
Civil Twilight 5:42 AM EDT 7:09 PM EDT
Nautical Twilight 5:06 AM EDT 7:45 PM EDT
Astronomical Twilight 4:29 AM EDT 8:22 PM EDT
Moon 8:08 AM EDT (9/17) 7:06 PM EDT (9/17)
Length of Visible Light 13h 26m
Length of Day
12h 25m
Waxing Crescent, 3% of the Moon is Illuminated
Sep 17
Waxing Crescent
Sep 22
First Quarter
Sep 29
Full
Oct 8
Last Quarter
Oct 15
New

Hourly Weather History & Observations

Time (EDT) Temp. Windchill Dew Point Humidity Pressure Visibility Wind Dir Wind Speed Gust Speed Precip Events Conditions
12:15 AM 46.4 °F 43.5 °F 35.6 °F 66% 29.85 in 10.0 mi West 5.8 mph - N/A   Clear
12:35 AM 46.4 °F 43.5 °F 35.6 °F 66% 29.86 in 10.0 mi West 5.8 mph - N/A   Clear
12:55 AM 46.4 °F 43.5 °F 35.6 °F 66% 29.86 in 10.0 mi West 5.8 mph - N/A   Clear
1:15 AM 46.4 °F 43.5 °F 35.6 °F 66% 29.86 in 10.0 mi WSW 5.8 mph - N/A   Clear
1:35 AM 46.4 °F 43.5 °F 35.6 °F 66% 29.87 in 10.0 mi WSW 5.8 mph - N/A   Clear
1:55 AM 46.4 °F 42.9 °F 35.6 °F 66% 29.87 in 10.0 mi WSW 6.9 mph - N/A   Clear
2:15 AM 46.4 °F 42.4 °F 35.6 °F 66% 29.87 in 10.0 mi WSW 8.1 mph - N/A   Clear
2:35 AM 46.4 °F 42.9 °F 35.6 °F 66% 29.87 in 10.0 mi WSW 6.9 mph - N/A   Clear
3:15 AM 46.4 °F 41.9 °F 35.6 °F 66% 29.87 in 10.0 mi West 9.2 mph - N/A   Clear
3:35 AM 44.6 °F 40.2 °F 35.6 °F 71% 29.87 in 10.0 mi West 8.1 mph - N/A   Clear
3:55 AM 44.6 °F 40.7 °F 35.6 °F 71% 29.87 in 10.0 mi West 6.9 mph - N/A   Clear
4:15 AM 44.6 °F 41.4 °F 35.6 °F 71% 29.88 in 10.0 mi SW 5.8 mph - N/A   Clear
4:35 AM 44.6 °F 41.4 °F 35.6 °F 71% 29.88 in 10.0 mi South 5.8 mph - N/A   Clear
4:55 AM 42.8 °F 40.1 °F 35.6 °F 76% 29.89 in 10.0 mi South 4.6 mph - N/A   Clear
5:15 AM 41.0 °F 39.0 °F 33.8 °F 76% 29.89 in 10.0 mi South 3.5 mph - N/A   Clear
5:35 AM 41.0 °F 38.0 °F 35.6 °F 81% 29.90 in 10.0 mi South 4.6 mph - N/A   Clear
5:55 AM 39.2 °F 37.0 °F 33.8 °F 81% 29.90 in 10.0 mi SSE 3.5 mph - N/A   Clear
6:15 AM 39.2 °F - 33.8 °F 81% 29.91 in 10.0 mi Calm Calm - N/A   Clear
6:35 AM 39.2 °F - 33.8 °F 81% 29.91 in 10.0 mi Calm Calm - N/A   Clear
6:55 AM 39.2 °F - 35.6 °F 87% 29.91 in 10.0 mi Calm Calm - N/A   Clear
7:15 AM 41.0 °F - 35.6 °F 81% 29.91 in 10.0 mi Calm Calm - N/A   Clear
7:35 AM 44.6 °F 41.4 °F 37.4 °F 76% 29.93 in 10.0 mi SSW 5.8 mph - N/A   Clear
8:15 AM 48.2 °F - 39.2 °F 71% 29.94 in 10.0 mi SSW 4.6 mph - N/A   Clear
8:35 AM 51.8 °F - 39.2 °F 62% 29.94 in 10.0 mi SW 6.9 mph - N/A   Clear
8:55 AM 53.6 °F - 39.2 °F 58% 29.94 in 10.0 mi SW 5.8 mph - N/A   Clear
9:35 AM 53.6 °F - 39.2 °F 58% 29.95 in 10.0 mi WSW 6.9 mph - N/A   Clear
9:55 AM 55.4 °F - 39.2 °F 54% 29.95 in 10.0 mi West 5.8 mph - N/A   Clear
10:15 AM 57.2 °F - 41.0 °F 55% 29.95 in 10.0 mi WSW 8.1 mph - N/A   Clear
10:35 AM 57.2 °F - 41.0 °F 55% 29.94 in 10.0 mi SSW 8.1 mph - N/A   Clear
10:55 AM 60.8 °F - 41.0 °F 48% 29.94 in 10.0 mi West 9.2 mph - N/A   Clear
11:15 AM 60.8 °F - 42.8 °F 52% 29.94 in 10.0 mi West 6.9 mph - N/A   Clear
11:35 AM 62.6 °F - 42.8 °F 48% 29.93 in 10.0 mi SW 5.8 mph - N/A   Clear
11:55 AM 62.6 °F - 41.0 °F 45% 29.92 in 10.0 mi West 8.1 mph - N/A   Clear
12:35 PM 64.4 °F - 42.8 °F 45% 29.92 in 10.0 mi West 6.9 mph - N/A   Clear
12:55 PM 64.4 °F - 39.2 °F 40% 29.91 in 10.0 mi SW 9.2 mph - N/A   Clear
1:15 PM 64.4 °F - 39.2 °F 40% 29.92 in 10.0 mi West 10.4 mph - N/A   Clear
1:35 PM 66.2 °F - 41.0 °F 40% 29.91 in 10.0 mi West 10.4 mph - N/A   Clear
1:55 PM 66.2 °F - 42.8 °F 43% 29.91 in 10.0 mi WNW 8.1 mph - N/A   Clear
2:15 PM 66.2 °F - 41.0 °F 40% - 10.0 mi SSW 3.5 mph - N/A   Clear
2:35 PM 68.0 °F - 41.0 °F 37% 29.91 in 10.0 mi West 9.2 mph - N/A   Clear
2:55 PM 69.8 °F - 39.2 °F 33% 29.90 in 10.0 mi West 6.9 mph - N/A   Clear
3:15 PM 68.0 °F - 42.8 °F 40% 29.90 in 10.0 mi SSW 9.2 mph - N/A   Clear
3:35 PM 69.8 °F - 41.0 °F 35% 29.90 in 10.0 mi SSW 4.6 mph - N/A   Clear
3:55 PM 69.8 °F - 42.8 °F 38% 29.90 in 10.0 mi SW 4.6 mph - N/A   Clear
4:15 PM 69.8 °F - 42.8 °F 38% 29.89 in 10.0 mi SSW 8.1 mph - N/A   Clear
4:35 PM 69.8 °F - 42.8 °F 38% 29.90 in 10.0 mi SSW 4.6 mph - N/A   Clear
4:55 PM 69.8 °F - 44.6 °F 40% 29.90 in 10.0 mi SW 5.8 mph - N/A   Clear
5:15 PM 68.0 °F - 46.4 °F 46% 29.90 in 10.0 mi SSW 5.8 mph - N/A   Clear
5:35 PM 66.2 °F - 46.4 °F 49% - 10.0 mi South 6.9 mph - N/A   Clear
5:55 PM 66.2 °F - 46.4 °F 49% - 10.0 mi SSW 4.6 mph - N/A   Clear
6:15 PM 64.4 °F - 48.2 °F 56% - 10.0 mi South 3.5 mph - N/A   Clear
6:55 PM 59.0 °F - 48.2 °F 67% - 10.0 mi Calm Calm - N/A   Clear
7:15 PM 57.2 °F - 48.2 °F 72% 29.91 in 10.0 mi Calm Calm - N/A   Clear
7:35 PM 55.4 °F - 46.4 °F 72% - 10.0 mi Calm Calm - N/A   Clear
7:55 PM 55.4 °F - 46.4 °F 72% - 10.0 mi Calm Calm - N/A   Clear
8:15 PM 53.6 °F - 46.4 °F 77% 29.93 in 10.0 mi Calm Calm - N/A   Clear
8:35 PM 53.6 °F - 44.6 °F 72% 29.93 in 10.0 mi Calm Calm - N/A   Clear
8:55 PM 51.8 °F - 44.6 °F 76% 29.93 in 10.0 mi Calm Calm - N/A   Clear
9:15 PM 51.8 °F - 44.6 °F 76% 29.93 in 10.0 mi WSW 4.6 mph - N/A   Clear
9:35 PM 51.8 °F - 44.6 °F 76% 29.94 in 10.0 mi Calm Calm - N/A   Clear
9:55 PM 51.8 °F - 44.6 °F 76% 29.94 in 10.0 mi Calm Calm - N/A   Clear
10:15 PM 51.8 °F - 44.6 °F 76% 29.94 in 10.0 mi Calm Calm - N/A   Clear
10:35 PM 53.6 °F - 44.6 °F 72% 29.94 in 10.0 mi SSW 4.6 mph - N/A   Clear
10:55 PM 51.8 °F - 42.8 °F 71% 29.94 in 10.0 mi Calm Calm - N/A   Clear
11:15 PM 50.0 °F - 42.8 °F 76% - 10.0 mi SSW 3.5 mph - N/A   Clear
11:35 PM 51.8 °F - 44.6 °F 76% 29.95 in 10.0 mi Calm Calm - N/A   Clear
11:55 PM 53.6 °F - 44.6 °F 72% 29.95 in 10.0 mi SSW 3.5 mph - N/A   Clear